Flag for Bosnia-Herzegovina Weather past 2 weeks in Mostar, Bosnia-Herzegovina

Now
54 °F

Passing clouds.


Feels Like: 54 °F
Forecast: 37 / 56 °F
Wind: 2 mph from North

Location: Mostar

Current Time: Dec 18, 2014 at 11:40:13 AM

Latest Report: Dec 18, 2014 at 11:00 AM


Visibility: N/A

Pressure: 30.04 "Hg

Humidity: 82%

Dew point: 48 °F

Location of MostarLocation

Historic Weather in Mostar — Graph

°F

Mostar temperature yesterday

Maximum temperature yesterday: 55 °F (at 10:00 AM)
Minimum temperature yesterday: 48 °F (at 3:00 AM)
Average temperature yesterday: 52 °F

Past Weeks' High & Low Weather Summary

 TemperatureHumidityPressure
High63 °F (Dec 3, 10:30 AM)100% (Dec 3, 10:00 PM)30.30 "Hg (Dec 3, 10:00 PM)
Low28 °F (Dec 13, 5:00 AM)31% (Dec 12, 2:00 PM)29.74 "Hg (Dec 9, 6:00 AM)
Average48 °F80%29.99 "Hg
* Reported Dec 3 10:00 AM — Dec 18 10:30 AM, Mostar, Weather by CustomWeather, © 2014

Note: Actual official high and low records may vary slightly from our data, if they occured in-between our weather recording intervals... More about our weather records

Advertising

Mostar weather history for previous 24 hours

 ConditionsComfort  
Time TempWeatherWind HumidityBarometerVisibility
10:30 AM
Dec 18
54 °FPassing clouds.3 mph82%30.04 "HgN/A
10:00 AM50 °FSnow. Passing clouds.3 mph100%30.04 "HgN/A
9:30 AM48 °FFog.3 mph100%30.04 "Hg0 mi
9:00 AM45 °FFog.1 mph100%30.04 "Hg0 mi
8:30 AM45 °FFog.2 mph93%30.01 "Hg0 mi
8:00 AM45 °FFog.2 mph100%30.01 "Hg0 mi
7:30 AM45 °FFog.3 mph100%29.98 "Hg0 mi
7:00 AM46 °FFog.3 mph93%29.98 "Hg0 mi
6:30 AM48 °FPartly cloudy.1 mph94%29.98 "Hg4 mi
6:00 AM46 °FFog.3 mph100%29.98 "Hg2 mi
5:00 AM48 °FFog.3 mph94%29.95 "Hg0 mi
4:00 AM48 °FFog.3 mph94%29.95 "Hg1 mi
3:00 AM48 °FFog.2 mph94%29.92 "Hg1 mi
2:00 AM48 °FFog.1 mph100%29.92 "Hg1 mi
1:00 AM48 °FPartly cloudy.2 mph100%29.92 "Hg4 mi
12:00 AM50 °FPartly cloudy.3 mph94%29.92 "Hg5 mi
11:00 PM
Dec 17
50 °FLight rain. Partly cloudy.3 mph94%29.92 "Hg4 mi
10:00 PM50 °FLight rain. Partly cloudy.3 mph100%29.92 "Hg4 mi
9:00 PM50 °FThunderstorms. Passing clouds.5 mph100%29.92 "Hg4 mi
8:00 PM50 °FLight rain. Passing clouds.5 mph94%29.89 "Hg6 mi
6:35 PM50 °FLight rain. Overcast.5 mph100%29.89 "Hg6 mi
6:00 PM52 °FRain. Overcast.1 mph94%29.89 "Hg5 mi
5:00 PM52 °FLight rain. Fog.3 mph94%29.89 "Hg2 mi
4:00 PM54 °FLight rain. Fog.5 mph88%29.86 "Hg3 mi
3:00 PM54 °FBroken clouds.6 mph94%29.86 "Hg3 mi
2:00 PM55 °FScattered clouds.5 mph88%29.86 "HgN/A
1:00 PM54 °FBroken clouds.5 mph94%29.86 "HgN/A
12:00 PM54 °FRain. Broken clouds.5 mph88%29.89 "Hg6 mi
11:30 AM55 °FLight rain. Broken clouds.6 mph77%29.89 "HgN/A
11:00 AM55 °FBroken clouds.1 mph77%29.89 "HgN/A
Weather by CustomWeather, © 2014

See weather overviewHow to use our weather pages